TimeCST,TemperatureF,Dew PointF,Humidity,Sea Level PressureIn,VisibilityMPH,Wind Direction,Wind SpeedMPH,Gust SpeedMPH,PrecipitationIn,Events,Conditions,WindDirDegrees,DateUTC
12:53 AM,28.9,25.0,85,30.21,6.0,North,9.2,-,N/A,,Mostly Cloudy,350,2013-01-02 06:53:00
1:53 AM,28.0,24.1,85,30.22,6.0,North,8.1,-,N/A,,Overcast,360,2013-01-02 07:53:00
2:53 AM,27.0,23.0,85,30.24,7.0,North,9.2,-,N/A,,Overcast,10,2013-01-02 08:53:00
3:53 AM,26.1,21.9,84,30.22,6.0,North,10.4,-,N/A,,Overcast,10,2013-01-02 09:53:00
4:53 AM,26.1,21.9,84,30.24,6.0,North,5.8,-,N/A,,Overcast,360,2013-01-02 10:53:00
6:53 AM,25.0,21.0,85,30.27,7.0,North,6.9,-,N/A,,Overcast,350,2013-01-02 12:53:00
7:53 AM,25.0,21.0,85,30.28,5.0,North,6.9,-,N/A,,Overcast,360,2013-01-02 13:53:00
9:53 AM,26.1,21.0,81,30.29,5.0,North,5.8,-,N/A,,Haze,360,2013-01-02 15:53:00
10:22 AM,28.4,21.2,74,30.29,8.0,Calm,Calm,-,N/A,,Scattered Clouds,0,2013-01-02 16:22:00
10:53 AM,28.9,23.0,78,30.28,9.0,North,4.6,-,N/A,,Clear,10,2013-01-02 16:53:00
11:53 AM,32.0,21.9,66,30.26,10.0,NNE,5.8,-,N/A,,Clear,20,2013-01-02 17:53:00
12:53 PM,32.0,21.9,66,30.24,10.0,North,5.8,-,N/A,,Clear,360,2013-01-02 18:53:00
1:53 PM,34.0,23.0,64,30.20,10.0,Variable,5.8,-,N/A,,Clear,0,2013-01-02 19:53:00
2:53 PM,34.0,21.9,61,30.21,10.0,NNW,3.5,-,N/A,,Clear,340,2013-01-02 20:53:00
3:53 PM,34.0,21.9,61,30.24,10.0,WNW,4.6,-,N/A,,Clear,300,2013-01-02 21:53:00
4:53 PM,33.1,23.0,66,30.25,10.0,WNW,3.5,-,N/A,,Clear,300,2013-01-02 22:53:00
5:53 PM,32.0,23.0,69,30.25,10.0,WNW,3.5,-,N/A,,Clear,300,2013-01-02 23:53:00
6:53 PM,30.9,21.9,69,30.27,10.0,NW,3.5,-,N/A,,Clear,310,2013-01-03 00:53:00
7:53 PM,30.9,23.0,72,30.27,10.0,Calm,Calm,-,N/A,,Clear,0,2013-01-03 01:53:00
8:53 PM,28.9,23.0,78,30.27,10.0,NNW,3.5,-,N/A,,Clear,330,2013-01-03 02:53:00
9:53 PM,28.0,21.9,78,30.28,10.0,Calm,Calm,-,N/A,,Clear,0,2013-01-03 03:53:00
11:53 PM,27.0,21.0,78,30.28,10.0,Calm,Calm,-,N/A,,Clear,0,2013-01-03 05:53:00